Location: Maiden
(35.5760°N, 81.2120°W)
Time: 19:41:35
(UTC-04:00)

A-11 Canister half - Pass Details

Date: 17 August 2020
Orbit: 1514 x 1686 km, 47.2° (Epoch: 26 September)

Event Time Altitude Azimuth Distance (km) Brightness Sun altitude
Rises 22:15:43 0° 302° (WNW) 4,807 13.0 -23.4°
Reaches altitude 10° 22:18:50 10° 305° (NW) 3,843 12.2 -23.9°
Maximum altitude 22:28:39 66° 28° (NNE) 1,777 9.2 -25.4°
Enters shadow 22:33:17 36° 97° (E) 2,415 9.6 -26.2°
